Tracking 22836 objects as of 18-Apr-2021
HD Live streaming from Space Station
objects crossing your sky now

DELTA 1 DEB

Track DELTA 1 DEB now!
10-day predictions


NORAD ID: 7015
Int'l Code: 1973-086F
Perigee: 1,513.0 km
Apogee: 2,172.8 km
Inclination: 101.8 °
Period: 123.5 minutes
Semi major axis: 8213 km
RCS: 0.3794 m2 (medium)
Launch date: November 6, 1973
Source: United States (US)
Launch site: AIR FORCE WESTERN TEST RANGE (AFWTR)

Note: This is SATELLITE DEBRIS
aabbcc
Your satellite tracking list
Your tracking list is empty




NASA's NSSDC Master Catalog

Two Line Element Set (TLE):
1 07015U 73086F   21107.94131323 -.00000019  00000-0  25422-3 0  9993
2 07015 101.7841 172.6534 0401614 212.8747 323.8960 11.66212076 19915
Source of the keplerian elements: AFSPC